This is the latest recevied weather packets stored in our database for station/object N4PWG. If no packets are shown the sender has not sent any weather packets the latest 10 day(s).
| Time | Temp. | Humidity | Pressure | Rain* | Wind** | Luminosity | Snow |
|---|---|---|---|---|---|---|---|
| 1778012950 | 17.22° C | 99% | 1024.5 hPa | 0 mm | - | 29 W/m² | - |
| 1778012424 | 17.22° C | 99% | 1024.6 hPa | 3.05 mm | - | 26 W/m² | - |
| 1778012122 | 17.22° C | 99% | 1024.6 hPa | 3.05 mm | - | 26 W/m² | - |
| 1778011819 | 17.22° C | 99% | 1024.7 hPa | 1.78 mm | - | 23 W/m² | - |
| 1778011517 | 17.78° C | 99% | 1024.6 hPa | 1.78 mm | - | 23 W/m² | - |
| 1778011214 | 17.78° C | 99% | 1024.8 hPa | 0 mm | - | 26 W/m² | - |
| 1778010909 | 17.78° C | 99% | 1024.6 hPa | 0 mm | - | 31 W/m² | - |
| 1778009779 | 17.78° C | 99% | 1024.6 hPa | 3.05 mm | - | 56 W/m² | - |
| 1778009476 | 17.78° C | 99% | 1024.6 hPa | 3.05 mm | - | 56 W/m² | - |
| 1778009175 | 17.78° C | 99% | 1024.6 hPa | 3.05 mm | - | 56 W/m² | - |
| 1778008871 | 17.78° C | 99% | 1024.6 hPa | 3.05 mm | - | 35 W/m² | - |
| 1778008570 | 17.78° C | 99% | 1024.9 hPa | 1.78 mm | - | 66 W/m² | - |
| 1778008103 | 18.33° C | 99% | 1024.9 hPa | 0 mm | - | 62 W/m² | - |
| 1778007799 | 18.33° C | 99% | 1024.9 hPa | 0 mm | - | 62 W/m² | - |
| 1778007495 | 18.33° C | 99% | 1024.8 hPa | 0 mm | - | 81 W/m² | - |
| 1778007191 | 18.33° C | 99% | 1024.7 hPa | 0 mm | - | 96 W/m² | - |
| 1778006887 | 17.78° C | 99% | 1024.9 hPa | 0 mm | - | 92 W/m² | - |
| 1778006556 | 17.78° C | 99% | 1025.2 hPa | 1.27 mm | - | 104 W/m² | - |
| 1778006253 | 17.78° C | 99% | 1025.2 hPa | 1.27 mm | - | 104 W/m² | - |
| 1778005950 | 17.78° C | 99% | 1025.1 hPa | 0 mm | - | 102 W/m² | - |
| 1778005646 | 17.78° C | 99% | 1025.3 hPa | 3.05 mm | - | 75 W/m² | - |
| 1778005343 | 17.78° C | 99% | 1025.3 hPa | 3.05 mm | - | 75 W/m² | - |
| 1778005039 | 17.78° C | 99% | 1025.3 hPa | 3.05 mm | - | 75 W/m² | - |
| 1778004737 | 17.22° C | 99% | 1025.3 hPa | 6.1 mm | - | 68 W/m² | - |
| 1778004434 | 17.78° C | 99% | 1025.9 hPa | 4.32 mm | - | 61 W/m² | - |
* Rain latest hour (hover to see other rain measurements)
** Current wind speed in m/s (hover to see current wind gust speed)